Preview of NWS' New Version of Forecast
This preview is not operational and should not be used for support decisions.

Regional Weather Roundup (RWR)

Issued by National Weather Service (NWS)

                            
000
ASUS42 KTBW 181016
RWRFL 
FLORIDA REGIONAL WEATHER ROUNDUP
NATIONAL WEATHER SERVICE TAMPA BAY RUSKIN FL
600 AM EDT SAT MAY 18 2019

NOTE: "FAIR" INDICATES FEW OR NO CLOUDS BELOW 12,000 FEET WITH NO
SIGNIFICANT WEATHER AND/OR OBSTRUCTIONS TO VISIBILITY.

FLZ001>010-012>015-112-114-115-181100-
PANHANDLE FLORIDA
  
CITY           SKY/WX    TMP DP  RH WIND       PRES   REMARKS
PENSACOLA      FAIR      73  73 100 SE6       29.98S                  
PENSACOLA NAS  FAIR      75  73  93 S9        29.98S                  
MILTON NAS     FOG       66  66 100 CALM      29.99S VSB<1/4          
CRESTVIEW      FOG       63  62  97 CALM      30.01S VSB 1/4          
DUKE FIELD     FOG       64  64 100 CALM      29.99S VSB 1/2          
VALPARAISO     FAIR      67  66  97 CALM      29.99S                  
PANAMA CITY    FOG       66  65  96 CALM      29.99S VSB 1/4          
APALACHICOLA   MOCLDY    65  62  90 NE3       29.99S                  

STATION/POSITION SKY/WX   TEMP    WIND        PRES    WAVE   SWELL
                          AIR SEA DIR/SP/G            HT/PER HT/PER
                          (F)     (DEG/KT/KT) (MB)    (FT/S) (FT/S)
30.1N   87.6W                                   N/A     2/ 4
29.2N   88.2W                     120/ 10/ 14 1014.6F   3/ 5   2/ 9
PANAMA CITY BEAC           72 79   50/  4/  5 1016.2S
TOWER C          NOT AVBL

$$
FLZ011-016>038-118-127-128-134-139-239-181100-
NORTH FLORIDA
  
CITY           SKY/WX    TMP DP  RH WIND       PRES   REMARKS
MARIANNA       FAIR      67  65  93 CALM      30.00S                  
TALLAHASSEE    FAIR      65  65 100 CALM      30.01R FOG              
PERRY          CLOUDY    70  69  97 CALM      30.03R FOG              
LIVE OAK       FOG       68  68 100 CALM      30.02R VSB 1            
CROSS CITY     FAIR      63  62  96 CALM      30.02S                  
GAINESVILLE    FAIR      65  60  84 CALM      30.05R                  
WILLISTON      FAIR      62  60  94 CALM      30.03R                  
PALATKA        MOCLDY   N/A N/A N/A CALM      30.03R                  
MAYPORT NAS      N/A    N/A N/A N/A MISG      30.02R                  
JACKSONVILLE   FAIR      64  60  87 CALM      30.02R                  
JAX NAS        FAIR      73  60  63 S5        30.03R                  
JAX CECIL      MOCLDY    61  57  88 CALM      30.03R                  
FERNANDINA BEA MOCLDY    69  65  88 SW5       30.02R                  
ST AUGUSTINE   FAIR      68  64  87 SW5       30.04R                  
PALM COAST     CLEAR     61  61 100 CALM      30.03S                  

STATION/POSITION SKY/WX   TEMP    WIND        PRES    WAVE   SWELL
                          AIR SEA DIR/SP/G            HT/PER HT/PER
                          (F)     (DEG/KT/KT) (MB)    (FT/S) (FT/S)
SHELL POINT      NOT AVBL
KEATON BEACH               69      60/  5/  7 1016.8R
CEDAR KEY                  77     160/ 12/ 12 1016.4R
FERNANDINA                 72 79  160/  3/  4 1017.2R
30.7N   81.3W                 77                N/A     3/ 4   2/15
MAYPORT                    71 79  220/  4/  7 1016.8R
31.4N   80.9W              76 76  200/ 14/ 17 1015.8R   4/ 5   2/15
ST AUGUSTINE               69 78  220/  5/  6 1017.1R

$$
FLZ040-043>046-052-053-057-058-063-144-181100-
INTERIOR CENTRAL FLORIDA
  
CITY           SKY/WX    TMP DP  RH WIND       PRES   REMARKS
OCALA          FAIR      62  60  93 CALM      30.04R                  
LEESBURG       FAIR      71  65  81 SE5       30.04S                  
SANFORD        FAIR      67  64  90 CALM      30.03S                  
ORLANDO EXEC   FAIR      67  64  90 CALM      30.03S                  
ORLANDO INTL   FAIR      66  63  90 CALM      30.03S                  
KISSIMMEE      FAIR      68  65  90 CALM      30.04S                  
WINTER HAVEN   FAIR      69  65  86 SE5       30.04R                  
LAKELAND       CLEAR     66  63  88 CALM      30.03                   
BARTOW         FAIR      61  59  94 CALM      30.03R                  
SEBRING        FAIR      62  61  96 N3        30.03R                  
OKEECHOBEE     FAIR      61  61 100 NE3       30.01S                  

$$
FLZ041-047-054-059-064-141-147-181100-
EAST CENTRAL FLORIDA
  
CITY           SKY/WX    TMP DP  RH WIND       PRES   REMARKS
DAYTONA BEACH  FAIR      65  65 100 CALM      30.03S                  
DELAND         FAIR      63  61  94 CALM      30.03S                  
JFK SPACE CTR  FAIR      61  59  94 CALM      30.02F                  
CAPE CANAVERAL FAIR      63  57  80 CALM      30.01S                  
PATRICK AFB    FAIR      71  64  78 SE6       30.02F                  
MELBOURNE      FAIR      67  63  87 CALM      30.02S                  
VERO BEACH     FAIR      61  59  93 CALM      30.02R                  
FT PIERCE      FAIR      61  58  90 CALM      30.01S                  
STUART         FAIR      68  63  83 CALM      30.02S                  

STATION/POSITION SKY/WX   TEMP    WIND        PRES    WAVE   SWELL
                          AIR SEA DIR/SP/G            HT/PER HT/PER
                          (F)     (DEG/KT/KT) (MB)    (FT/S) (FT/S)
28.5N   80.2W              76     130/  6/ 10 1017.1F   2/ 9   2/ 9
28.9N   78.5W              74 78   80/  4/  6 1017.4R   2/14   2/14
TRIDENT PIER               73 80  130/  4/  6 1017.8F
28.4N   80.5W                 78                N/A     2/15
27.5N   80.2W                 78                N/A     2/15   2/15

$$
FLZ050-056-061-142-242-148-248-149-249-151-251-155-255-
160-260-181100-
WEST CENTRAL FLORIDA
  
CITY           SKY/WX    TMP DP  RH WIND       PRES   REMARKS
CRYSTAL RIVER  FAIR      61  59  94 CALM      30.03S                  
INVERNESS      FAIR      61  61 100 CALM      30.04S                  
BROOKSVILLE    FAIR      62  60  93 CALM      30.04R                  
CLEARWATER AIR FAIR      70  63  78 SE3       30.01S                  
ST PETE CLEARW FAIR      69  65  86 CALM      30.02R                  
TAMPA INTL     FAIR      71  63  75 E5        30.02S                  
TAMPA EXEC     FAIR      61  59  94 CALM      30.03S                  
PLANT CITY     FAIR      66  64  94 SE3       30.04S                  
PETER O KNIGHT MOCLDY    70  66  88 E6        30.03R                  
ST PETERSBURG  FAIR      73  65  75 SE9       30.00S                  
SARASOTA       FAIR      67  62  84 E5        29.99S                  
VENICE         FAIR      66  63  88 E8        30.02R                  

STATION/POSITION SKY/WX   TEMP    WIND        PRES    WAVE   SWELL
                          AIR SEA DIR/SP/G            HT/PER HT/PER
                          (F)     (DEG/KT/KT) (MB)    (FT/S) (FT/S)
27.3N   84.2W                 78                N/A     2/ 5
CLEARWATER BEACH           73 83  120/  5/  7 1016.5R
MIDDLE TAMPA BAY           70     140/  9/ 10 1016.5R
VENICE                     67 81   70/  6/  8 1016.1R

$$
FLZ066-069-070-075>078-162-262-165-265-181100-
SOUTHWEST FLORIDA AND KEYS
  
CITY           SKY/WX    TMP DP  RH WIND       PRES   REMARKS
PUNTA GORDA    FAIR      62  60  93 NE6       30.02S                  
FT MYERS       FAIR      67  64  90 E3        30.00S                  
SOUTHWEST INTL FAIR      66  62  87 NE5       30.00S                  
NAPLES         FAIR      67  64  90 NE5       29.99S                  
MARCO ISLAND   FAIR      67  64  90 NE6       30.00S                  
IMMOKALEE      FAIR      63  61  94 CALM      29.99S                  
MARATHON       FAIR      81  71  71 NE8       29.95S                  
KEY WEST NAS   FAIR      80  72  76 NE8       29.96R                  
KEY WEST INTL  FAIR      78  73  84 NE8       29.96R                  

STATION/POSITION SKY/WX   TEMP    WIND        PRES    WAVE   SWELL
                          AIR SEA DIR/SP/G            HT/PER HT/PER
                          (F)     (DEG/KT/KT) (MB)    (FT/S) (FT/S)
NAPLES                     71 81              1015.5R
DRY TORTUGAS               80     100/ 16/ 17 1013.9F
SAND KEY                   80                 1014.1R
SOMBRERO KEY               80                 1013.8R

$$
FLZ067-068-071>074-168-172>174-181100-
SOUTHEAST FLORIDA 
  
CITY           SKY/WX    TMP DP  RH WIND       PRES   REMARKS
W PALM BEACH   FAIR      72  64  76 CALM      30.01R                  
FT LAUDER-EXEC FAIR      73  67  81 N5        29.99R                  
FT LAUDERDALE  FAIR      73  67  81 N5        29.98R                  
POMPANO BEACH  FAIR      74  67  78 CALM      29.99R                  
PEMBROKE PINES FAIR      70  66  87 N3        30.00R                  
OPA LOCKA      FAIR      73  67  81 N3        29.99R                  
MIAMI          FAIR      75  67  76 N5        29.99R                  
WEST KENDALL   FAIR      69  66  90 CALM      29.98R                  
HOMESTEAD      FAIR      72  67  84 NW6       29.97R                  

STATION/POSITION SKY/WX   TEMP    WIND        PRES    WAVE   SWELL
                          AIR SEA DIR/SP/G            HT/PER HT/PER
                          (F)     (DEG/KT/KT) (MB)    (FT/S) (FT/S)
VIRGINIA KEY               78 83   20/  3/  5 1014.5R
LAKE WORTH                 78 81              1016.9R
SETTLEMENT POINT           77      70/  8/  9 1016.3R

$$